This demonstration page uses our WeatherBlox Daily Observations layout. Learn more.

Left ArrowRight Arrow

Hourly Observations for May 21, 2017

Temp ( °F °C ) Dew Point ( °F °C ) Humidity (%) Winds ( mph kmh ) Pressure ( in mb ) Visibility ( mi km ) Precip ( " mm )
12:15 am 00:15 Clear 39 4 34 1 81 81 W 13 20 30.12 1020 10 16 0.00 0.00
12:35 am 00:35 Clear 39 4 34 1 81 81 W 9 15 30.12 1020 10 16 0.00 0.00
12:55 am 00:55 Clear 39 4 34 1 81 81 W 10 17 30.12 1020 10 16 0.00 0.00
1:15 am 01:15 Clear 39 4 34 1 81 81 W 10 17 30.12 1020 10 16 0.00 0.00
1:35 am 01:35 Clear 39 4 34 1 81 81 W 9 15 30.12 1020 10 16 0.00 0.00
1:55 am 01:55 Clear 39 4 34 1 81 81 W 10 17 30.12 1020 10 16 0.00 0.00
2:15 am 02:15 Clear 39 4 34 1 81 81 W 6 9 30.12 1020 10 16 0.00 0.00
2:35 am 02:35 Clear 37 3 34 1 87 87 NW 5 7 30.12 1020 10 16 0.00 0.00
2:55 am 02:55 Clear 37 3 34 1 87 87 WNW 5 7 30.12 1020 10 16 0.00 0.00
3:15 am 03:15 Clear 37 3 34 1 87 87 WNW 5 7 30.12 1020 10 16 0.00 0.00
3:35 am 03:35 Clear 37 3 34 1 87 87 WNW 3 6 30.12 1020 10 16 0.00 0.00
3:55 am 03:55 Clear 37 3 34 1 87 87 WSW 7 11 30.12 1020 10 16 0.00 0.00
4:15 am 04:15 Clear 37 3 34 1 87 87 WSW 7 11 30.12 1020 10 16 0.00 0.00
4:35 am 04:35 Clear 37 3 34 1 87 87 SW 6 9 30.12 1020 8 13 0.00 0.00
4:55 am 04:55 Clear 37 3 34 1 87 87 WSW 7 11 30.12 1020 7 11 0.00 0.00
5:15 am 05:15 Clear 37 3 34 1 87 87 WSW 6 9 30.12 1020 7 11 0.00 0.00
5:35 am 05:35 Clear 37 3 34 1 87 87 W 7 11 30.12 1020 9 14 0.00 0.00
5:55 am 05:55 Clear 37 3 34 1 87 87 W 5 7 30.12 1020 9 14 0.00 0.00
6:15 am 06:15 Sunny 37 3 34 1 87 87 W 6 9 30.12 1020 9 14 0.00 0.00
6:35 am 06:35 Sunny 37 3 34 1 87 87 W 5 7 30.15 1021 10 16 0.00 0.00
6:55 am 06:55 Sunny 39 4 34 1 81 81 W 7 11 30.15 1021 10 16 0.00 0.00
7:15 am 07:15 Sunny 39 4 36 2 87 87 W 7 11 30.15 1021 10 16 0.00 0.00
7:35 am 07:35 Sunny 41 5 36 2 81 81 WNW 7 11 30.15 1021 10 16 0.00 0.00
7:55 am 07:55 Sunny 43 6 36 2 76 76 W 7 11 30.12 1020 10 16 0.00 0.00
8:15 am 08:15 Sunny 45 7 37 3 76 76 WNW 9 15 30.15 1021 10 16 0.00 0.00
8:35 am 08:35 Sunny 46 8 37 3 71 71 WNW 13 20 30.15 1021 10 16 0.00 0.00
8:55 am 08:55 Sunny 48 9 37 3 66 66 WNW 12 19 30.15 1021 10 16 0.00 0.00
9:15 am 09:15 Sunny 50 10 37 3 62 62 WNW 10 17 30.12 1020 10 16 0.00 0.00
9:35 am 09:35 Sunny 52 11 39 4 62 62 WNW 10 17 30.12 1020 10 16 0.00 0.00
9:55 am 09:55 Sunny 54 12 37 3 54 54 WNW 10 17 30.12 1020 10 16 0.00 0.00
10:15 am 10:15 Sunny 55 13 37 3 51 51 WNW 9 15 30.09 1019 10 16 0.00 0.00
10:35 am 10:35 Sunny 57 14 37 3 48 48 WNW 9 15 30.09 1019 10 16 0.00 0.00
10:55 am 10:55 Sunny 61 16 39 4 45 45 W 6 9 30.12 1020 10 16 0.00 0.00
11:15 am 11:15 Sunny 61 16 41 5 48 48 W 8 13 30.12 1020 10 16 0.00 0.00
11:35 am 11:35 Sunny 63 17 37 3 39 39 W 8 13 30.09 1019 10 16 0.00 0.00
11:55 am 11:55 Sunny 61 16 43 6 52 52 SW 10 17 30.12 1020 10 16 0.00 0.00
12:15 pm 12:15 Sunny 64 18 36 2 34 34 WNW 10 17 30.09 1019 10 16 0.00 0.00
12:35 pm 12:35 Sunny 64 18 36 2 34 34 WNW 13 20 30.09 1019 10 16 0.00 0.00
12:55 pm 12:55 Mostly Cloudy 64 18 39 4 40 40 W 12 19 30.09 1019 10 16 0.00 0.00
1:15 pm 13:15 Partly Cloudy 66 19 36 2 32 32 NW 16 26 30.06 1018 10 16 0.00 0.00
1:35 pm 13:35 Mostly Cloudy 66 19 41 5 40 40 W 13 20 30.06 1018 10 16 0.00 0.00
1:55 pm 13:55 Partly Cloudy 66 19 39 4 37 37 W 10 17 30.06 1018 10 16 0.00 0.00
2:15 pm 14:15 Partly Cloudy 66 19 39 4 37 37 WNW 13 20 30.06 1018 10 16 0.00 0.00
2:35 pm 14:35 Mostly Sunny 68 20 39 4 35 35 NW 13 20 30.06 1018 10 16 0.00 0.00
2:55 pm 14:55 Sunny 68 20 39 4 35 35 W 9 15 30.06 1018 10 16 0.00 0.00
3:15 pm 15:15 Mostly Sunny 68 20 37 3 33 33 WNW 13 20 30.06 1018 10 16 0.00 0.00
3:35 pm 15:35 Mostly Sunny 70 21 37 3 31 31 WNW 10 17 30.00 1016 10 16 0.00 0.00
3:55 pm 15:55 Sunny 70 21 37 3 31 31 W 10 17 30.00 1016 10 16 0.00 0.00
4:15 pm 16:15 Mostly Sunny 68 20 37 3 33 33 NW 8 13 30.03 1017 10 16 0.00 0.00
4:35 pm 16:35 Mostly Sunny 70 21 37 3 31 31 W 9 15 30.00 1016 10 16 0.00 0.00
4:55 pm 16:55 Sunny 70 21 37 3 31 31 WNW 12 19 30.00 1016 10 16 0.00 0.00
5:15 pm 17:15 Sunny 70 21 37 3 31 31 WNW 7 11 30.00 1016 10 16 0.00 0.00
5:35 pm 17:35 Sunny 70 21 37 3 31 31 W 9 15 30.00 1016 10 16 0.00 0.00
5:55 pm 17:55 Mostly Sunny 68 20 37 3 33 33 SW 7 11 30.03 1017 10 16 0.00 0.00
6:15 pm 18:15 Mostly Sunny 70 21 37 3 31 31 WNW 7 11 29.97 1015 10 16 0.00 0.00
6:35 pm 18:35 Sunny 70 21 37 3 31 31 WNW 6 9 29.97 1015 10 16 0.00 0.00
6:55 pm 18:55 Sunny 70 21 37 3 31 31 WNW 7 11 29.97 1015 10 16 0.00 0.00
7:15 pm 19:15 Sunny 70 21 39 4 33 33 WNW 7 11 29.97 1015 10 16 0.00 0.00
7:35 pm 19:35 Sunny 70 21 37 3 31 31 W 5 7 29.97 1015 10 16 0.00 0.00
7:55 pm 19:55 Sunny 70 21 39 4 33 33 WNW 3 6 29.97 1015 10 16 0.00 0.00
8:15 pm 20:15 Sunny 70 21 37 3 31 31 Calm 29.97 1015 10 16 0.00 0.00
8:35 pm 20:35 Sunny 64 18 46 8 52 52 Calm 30.00 1016 4 6 0.00 0.00
8:55 pm 20:55 Clear 63 17 43 6 49 49 Calm 30.00 1016 10 16 0.00 0.00
9:15 pm 21:15 Clear 61 16 43 6 52 52 Calm 30.06 1018 10 16 0.00 0.00
9:35 pm 21:35 Clear 57 14 43 6 59 59 Calm 30.06 1018 10 16 0.00 0.00
9:55 pm 21:55 Clear 57 14 43 6 59 59 Calm 30.06 1018 10 16 0.00 0.00
10:15 pm 22:15 Clear 55 13 45 7 67 67 Calm 30.06 1018 10 16 0.00 0.00
10:35 pm 22:35 Clear 55 13 45 7 67 67 NE 3 6 30.06 1018 10 16 0.00 0.00
10:55 pm 22:55 Clear 54 12 45 7 72 72 NE 3 6 30.09 1019 10 16 0.00 0.00
11:15 pm 23:15 Mostly Cloudy 54 12 45 7 72 72 NE 5 7 30.09 1019 10 16 0.00 0.00
11:35 pm 23:35 Cloudy 57 14 45 7 63 63 W 3 6 30.06 1018 10 16 0.00 0.00
11:55 pm 23:55 Cloudy 57 14 45 7 63 63 W 3 6 30.06 1018 10 16 0.00 0.00

Powered by AerisWeather